Location: Enborne
(51.3833°N, 1.3667°W)
Time: 13:13:30
(UTC+00:00)

Cosmos 1844 Rocket - Pass Details

Date: 22 January 2021
Orbit: 826 x 843 km, 71.0° (Epoch: 05 March)

Event Time Altitude Azimuth Distance (km) Brightness Sun altitude
Rises 21:03:37 0° 270° (W) 3,399 6.6 -40.6°
Reaches altitude 10° 21:06:58 10° 290° (WNW) 2,464 5.8 -41.1°
Enters shadow 21:10:02 17° 323° (NW) 2,011 5.1 -41.5°
